Flag for U.S.A. Weather past 2 weeks in Tucson, Arizona, U.S.A.

Now
74 °F

Light rain. Partly sunny.


Feels Like: 74 °F
Forecast: 79 / 91 °F
Wind: 3 mph from Southwest

Location: Davis-Monthan Air Force Base

Current Time: Jul 29, 2015 at 6:49:33 AM

Latest Report: Jul 29, 2015 at 5:58 AM


Visibility: 10 mi

Pressure: 30.04 "Hg (27.53 "Hg at 758m altitude)

Humidity: 79%

Dew point: 67 °F

Location of TucsonLocation

Historic Weather in Tucson — Graph

°F

Tucson temperature yesterday

Maximum temperature yesterday: 98 °F (at 3:58 PM)
Minimum temperature yesterday: 71 °F (at 8:58 PM)
Average temperature yesterday: 84 °F

Past Weeks' High & Low Weather Summary

 TemperatureHumidityPressure
High100 °F (Jul 26, 3:58 PM)88% (Jul 28, 7:58 PM)30.12 "Hg (Jul 28, 7:58 PM)
Low71 °F (Jul 28, 8:58 PM)11% (Jul 26, 12:58 PM)29.67 "Hg (Jul 21, 4:58 PM)
Average85 °F45%29.85 "Hg
* Reported Jul 14 4:58 AM — Jul 29 4:58 AM, Tucson, Weather by CustomWeather, © 2015

Note: Actual official high and low records may vary slightly from our data, if they occured in-between our weather recording intervals... More about our weather records

Advertising

Tucson weather history for previous 24 hours

 ConditionsComfort  
Time TempWeatherWind HumidityBarometerVisibility
4:58 AM
Wed, Jul 29
74 °FPassing clouds.9 mph80%30.01 "Hg10 mi
3:58 AM74 °FPassing clouds.7 mph76%29.88 "Hg10 mi
2:58 AM75 °FPassing clouds.6 mph70%29.87 "Hg10 mi
1:58 AM75 °FPassing clouds.7 mph77%29.86 "Hg10 mi
12:58 AM76 °FClear.6 mph74%29.89 "Hg10 mi
11:58 PM
Tue, Jul 28
74 °FClear.6 mph82%29.92 "Hg10 mi
10:58 PM74 °FClear.5 mph79%29.92 "Hg10 mi
9:58 PM73 °FClear.8 mph75%29.92 "Hg10 mi
8:58 PM71 °FClear.17 mph84%29.91 "Hg10 mi
7:58 PM72 °FLight rain. Mostly cloudy.9 mph88%29.87 "Hg10 mi
6:58 PM73 °FThunderstorms. Mostly cloudy.12 mph83%29.87 "Hg7 mi
5:58 PM73 °FThunderstorms. Mostly cloudy.16 mph78%29.82 "Hg10 mi
5:03 PM91 °FThunderstorms. Mostly cloudy.20 mph30%29.70 "Hg10 mi
3:58 PM98 °FSunny.10 mph24%29.71 "Hg10 mi
2:58 PM98 °FSunny.6 mph25%29.73 "Hg10 mi
1:58 PM98 °FSunny.3 mph26%29.76 "Hg10 mi
12:58 PM97 °FSunny.9 mph29%29.79 "Hg10 mi
11:58 AM93 °FSunny.5 mph32%29.81 "Hg10 mi
10:58 AM92 °FSunny.6 mph33%29.83 "Hg10 mi
9:58 AM90 °FSunny.3 mph38%29.84 "Hg10 mi
8:58 AM88 °FSunny.No wind44%29.85 "Hg10 mi
7:58 AM85 °FPassing clouds.5 mph50%29.85 "Hg10 mi
6:58 AM81 °FSunny.3 mph54%29.85 "Hg10 mi
Weather by CustomWeather, © 2015

See weather overviewHow to use our weather pages